Location: Ferchesar
(52.6477°N, 12.4298°E)
Time: 06:39:37
(UTC+01:00)

Transit 2A Rocket - Pass Details

Date: 08 December 2021
Orbit: 585 x 917 km, 66.7° (Epoch: 25 January)

Event Time Altitude Azimuth Distance (km) Brightness Sun altitude
Rises 06:14:47 0° 185° (S) 3,346 8.5 -16.0°
Reaches altitude 10° 06:17:21 10° 176° (S) 2,464 7.9 -15.7°
Maximum altitude 06:22:28 34° 113° (ESE) 1,411 7.1 -14.9°
Drops below altitude 10° 06:27:53 10° 51° (NE) 2,605 8.2 -14.2°
Sets 06:30:39 0° 43° (NE) 3,563 8.8 -13.8°
